EW1458 Weather Reports


Display with metric or nautical units.
time (UTC)temp
F
wind
direction
speed
MPH
gust
MPH
rain 1hr
in
rain 24hr
in
rain mn
in
humidity
%
barometer
mb
20260507070324 58 109 20.0 21.0 0.00 0.07 0.07 89 1003.3
20260507065835 58 171 13.0 19.0 0.00 0.07 0.07 88 1003.2
20260507065322 59 156 8.0 19.0 0.00 0.07 0.07 87 1003.3
20260507064820 59 192 11.0 21.0 0.00 0.07 0.07 87 1003.6
20260507064320 59 169 16.0 21.0 0.00 0.07 0.07 86 1003.6
20260507063321 59 162 8.0 18.0 0.00 0.07 0.07 86 1004.0
20260507062820 59 155 15.0 17.0 0.00 0.07 0.07 86 1004.3
20260507061821 59 152 4.0 21.0 0.00 0.07 0.07 86 1004.4
20260507061320 59 190 6.0 15.0 0.00 0.07 0.07 87 1004.2
20260507060821 59 165 11.0 18.0 0.01 0.07 0.07 87 1004.4
20260507060320 59 165 9.0 18.0 0.01 0.07 0.07 87 1004.4
20260507055820 58 145 7.0 19.0 0.02 0.07 0.07 88 1004.6
20260507055322 58 169 7.0 19.0 0.02 0.07 0.07 88 1004.5
20260507054819 58 196 7.0 17.0 0.02 0.07 0.07 88 1004.6
20260507054319 58 156 8.0 19.0 0.02 0.07 0.07 88 1004.6
20260507053817 58 115 7.0 19.0 0.02 0.07 0.07 88 1005.1
20260507053316 58 115 6.0 18.0 0.02 0.07 0.07 88 1005.0
20260507052328 58 168 15.0 21.0 0.03 0.07 0.07 89 1005.4
20260507051816 58 158 9.0 27.0 0.05 0.07 0.07 89 1005.7
20260507051315 58 183 8.0 27.0 0.05 0.07 0.07 89 1005.7
20260507050815 57 157 10.0 19.0 0.05 0.06 0.06 90 1005.8
20260507050315 58 159 11.0 18.0 0.06 0.06 0.06 90 1006.0
20260507045815 58 117 11.0 21.0 0.05 0.05 0.05 89 1006.3
20260507045314 58 126 16.0 21.0 0.05 0.05 0.05 89 1006.4
20260507044814 57 127 7.0 17.0 0.05 0.05 0.05 89 1006.4
20260507044312 57 134 5.0 17.0 0.05 0.05 0.05 89 1006.4
20260507043810 57 106 10.0 17.0 0.05 0.05 0.05 89 1006.3
20260507043310 57 122 11.0 17.0 0.05 0.05 0.05 89 1006.8
20260507042309 57 119 13.0 18.0 0.04 0.04 0.04 89 1007.2
20260507041810 58 94 11.0 15.0 0.02 0.02 0.02 89 1007.4
20260507041310 58 139 6.0 16.0 0.02 0.02 0.02 87 1007.1
20260507040810 58 152 11.0 18.0 0.01 0.01 0.01 86 1007.6
20260507035809 59 158 5.0 17.0 0.00 0.00 0.00 82 1008.0
20260507035309 59 156 9.0 17.0 0.00 0.00 0.00 81 1008.0
20260507034809 60 148 5.0 17.0 0.00 0.00 0.00 80 1008.2
20260507034309 60 172 11.0 17.0 0.00 0.00 0.00 80 1008.2
20260507033811 59 100 7.0 16.0 0.00 0.00 0.00 80 1008.1
20260507033309 60 157 6.0 17.0 0.00 0.00 0.00 80 1008.2
20260507032758 60 116 7.0 17.0 0.00 0.00 0.00 80 1008.4
20260507032257 60 164 9.0 15.0 0.00 0.00 0.00 79 1008.2
20260507031757 60 126 7.0 15.0 0.00 0.00 0.00 79 1008.1
20260507031256 60 104 9.0 16.0 0.00 0.00 0.00 79 1008.1
20260507030757 60 127 6.0 21.0 0.00 0.00 0.00 79 1008.3
20260507030256 60 121 7.0 21.0 0.00 0.00 0.00 79 1008.4
20260507025756 60 119 7.0 17.0 0.00 0.00 0.00 78 1008.7
20260507025247 60 117 11.0 17.0 0.00 0.00 0.00 78 1008.8
20260507024748 60 108 6.0 14.0 0.00 0.00 0.00 78 1009.0
20260507024248 60 112 8.0 15.0 0.00 0.00 0.00 78 1009.2
20260507023746 61 98 6.0 16.0 0.00 0.00 0.00 77 1009.1
20260507023245 61 157 4.0 16.0 0.00 0.00 0.00 77 1009.4
20260507022745 61 127 4.0 15.0 0.00 0.00 0.00 77 1009.6
20260507021744 61 194 5.0 15.0 0.00 0.00 0.00 76 1009.8
20260507021241 61 152 7.0 14.0 0.00 0.00 0.00 76 1009.9
20260507020741 61 154 7.0 13.0 0.00 0.00 0.00 76 1009.8
20260507020242 61 133 4.0 14.0 0.00 0.00 0.00 77 1010.1
20260507015743 61 187 4.0 14.0 0.00 0.00 0.00 77 1009.9
20260507015242 61 193 7.0 13.0 0.00 0.00 0.00 77 1009.7
20260507014737 61 151 6.0 18.0 0.00 0.00 0.00 77 1009.6
20260507014233 62 116 7.0 18.0 0.00 0.00 0.00 77 1009.3
20260507013734 62 121 9.0 14.0 0.00 0.00 0.00 77 1009.8
20260507013235 62 119 8.0 17.0 0.00 0.00 0.00 76 1009.9
20260507012733 62 166 7.0 17.0 0.00 0.00 0.00 76 1010.2
20260507012233 62 106 5.0 15.0 0.00 0.00 0.00 76 1009.9
20260507011733 62 155 8.0 22.0 0.00 0.00 0.00 76 1010.2
20260507011233 62 118 10.0 22.0 0.00 0.00 0.00 76 1010.3
20260507010732 62 152 7.0 20.0 0.00 0.00 0.00 76 1010.4
20260507010231 63 155 9.0 20.0 0.00 0.00 0.00 74 1011.2
20260507005731 63 146 5.0 20.0 0.00 0.00 0.00 73 1011.1
20260507005231 63 151 8.0 18.0 0.00 0.00 0.00 74 1011.1
20260507004227 63 180 9.0 24.0 0.00 0.00 0.00 74 1011.3
20260507003727 63 152 12.0 19.0 0.00 0.00 0.00 73 1011.4
20260507003227 63 160 8.0 19.0 0.00 0.00 0.00 74 1011.2
20260507002727 63 180 13.0 19.0 0.00 0.00 0.00 73 1011.4
20260507002227 63 166 6.0 17.0 0.00 0.00 0.00 74 1011.2
20260507001727 63 83 4.0 17.0 0.00 0.00 0.00 74 1011.4
20260507001227 63 174 7.0 17.0 0.00 0.00 0.00 73 1011.5
20260507000727 63 142 2.0 16.0 0.00 0.00 0.00 73 1011.4
20260506235227 64 163 10.0 20.0 0.00 0.00 0.00 73 1011.5
20260506234726 63 155 10.0 15.0 0.00 0.00 0.00 73 1011.6
20260506234226 64 148 7.0 14.0 0.00 0.00 0.00 73 1011.6
20260506233724 64 159 9.0 15.0 0.00 0.00 0.00 73 1011.6
20260506233223 64 157 11.0 15.0 0.00 0.00 0.00 73 1011.6
20260506232723 64 187 4.0 16.0 0.00 0.00 0.00 73 1011.8
20260506232221 64 181 6.0 18.0 0.00 0.00 0.00 72 1011.7
20260506231220 64 148 6.0 21.0 0.00 0.00 0.00 72 1011.4
20260506230719 64 173 6.0 21.0 0.00 0.00 0.00 71 1011.3
20260506230217 64 129 6.0 19.0 0.00 0.00 0.00 71 1011.3
20260506225213 64 195 6.0 22.0 0.00 0.00 0.00 71 1011.5
20260506224712 64 175 13.0 22.0 0.00 0.00 0.00 70 1011.6
20260506223709 65 177 10.0 19.0 0.00 0.00 0.00 70 1011.5
20260506223200 65 194 9.0 19.0 0.00 0.00 0.00 70 1011.5
20260506222658 65 158 16.0 21.0 0.00 0.00 0.00 70 1011.5
20260506221651 65 250 8.0 21.0 0.00 0.00 0.00 69 1011.5
20260506221150 65 183 8.0 21.0 0.00 0.00 0.00 68 1011.7
20260506220645 65 176 9.0 18.0 0.00 0.00 0.00 68 1011.7
20260506220145 66 179 12.0 18.0 0.00 0.00 0.00 67 1011.5
20260506215137 66 192 9.0 15.0 0.00 0.00 0.00 66 1011.5
20260506214635 66 172 7.0 19.0 0.00 0.00 0.00 67 1011.5
20260506214115 66 204 6.0 21.0 0.00 0.00 0.00 65 1011.8
20260506213615 67 149 10.0 22.0 0.00 0.00 0.00 64 1011.8
20260506213115 67 169 12.0 22.0 0.00 0.00 0.00 63 1011.7
20260506212116 67 231 3.0 21.0 0.00 0.00 0.00 64 1011.8
20260506211615 67 166 7.0 19.0 0.00 0.00 0.00 64 1011.7
20260506211114 67 166 8.0 19.0 0.00 0.00 0.00 63 1012.1
20260506210614 67 193 10.0 30.0 0.00 0.00 0.00 63 1012.0
20260506210114 67 194 11.0 30.0 0.00 0.00 0.00 64 1011.7
20260506205110 68 203 10.0 20.0 0.00 0.00 0.00 63 1011.6
20260506204609 68 166 12.0 22.0 0.00 0.00 0.00 62 1011.7
20260506204109 68 185 10.0 26.0 0.00 0.00 0.00 62 1011.5
20260506203608 68 173 13.0 26.0 0.00 0.00 0.00 61 1011.7
20260506203105 68 189 13.0 20.0 0.00 0.00 0.00 60 1011.7
20260506202606 68 182 15.0 23.0 0.00 0.00 0.00 61 1011.7
20260506202103 68 169 7.0 23.0 0.00 0.00 0.00 62 1011.6
20260506201603 68 209 9.0 23.0 0.00 0.00 0.00 61 1011.6
20260506201116 69 183 6.0 22.0 0.00 0.00 0.00 61 1011.4
20260506200603 69 166 6.0 22.0 0.00 0.00 0.00 61 1011.5
20260506195602 69 165 9.0 19.0 0.00 0.00 0.00 61 1011.3
20260506195101 69 168 13.0 25.0 0.00 0.00 0.00 61 1011.5
20260506194558 69 153 9.0 25.0 0.00 0.00 0.00 60 1011.6
20260506194056 69 238 7.0 20.0 0.00 0.00 0.00 61 1011.4
20260506193557 69 204 9.0 20.0 0.00 0.00 0.00 60 1011.2
20260506193057 69 206 9.0 20.0 0.00 0.00 0.00 60 1011.2
20260506192555 69 172 8.0 24.0 0.00 0.00 0.00 60 1011.3
20260506192056 69 159 14.0 24.0 0.00 0.00 0.00 60 1011.4
20260506191556 70 171 8.0 25.0 0.00 0.00 0.00 59 1011.4
20260506190556 70 162 10.0 28.0 0.00 0.00 0.00 59 1011.4
20260506190107 70 164 14.0 28.0 0.00 0.00 0.00 58 1011.8
20260506185554 71 162 8.0 20.0 0.00 0.00 0.00 58 1011.8
20260506184554 71 167 11.0 30.0 0.00 0.00 0.00 57 1011.9
20260506184055 71 175 13.0 30.0 0.00 0.00 0.00 57 1011.8
20260506183552 71 188 11.0 17.0 0.00 0.00 0.00 56 1012.0
20260506183051 72 171 7.0 23.0 0.00 0.00 0.00 57 1012.1
20260506182550 72 190 11.0 26.0 0.00 0.00 0.00 57 1012.2
20260506182049 72 141 6.0 26.0 0.00 0.00 0.00 56 1012.2
20260506181549 72 171 13.0 20.0 0.00 0.00 0.00 57 1012.3
20260506181047 71 183 7.0 23.0 0.00 0.00 0.00 58 1012.3
20260506180544 72 169 14.0 27.0 0.00 0.00 0.00 58 1012.2
20260506180059 71 182 2.0 27.0 0.00 0.00 0.00 60 1012.2
20260506174532 72 166 13.0 28.0 0.00 0.00 0.00 57 1012.3
20260506174032 71 173 13.0 21.0 0.00 0.00 0.00 59 1012.3
20260506173532 70 237 14.0 21.0 0.00 0.00 0.00 61 1012.4
20260506173033 70 182 13.0 17.0 0.00 0.00 0.00 60 1012.5
20260506172532 70 179 6.0 20.0 0.00 0.00 0.00 62 1012.4
20260506172034 70 176 9.0 24.0 0.00 0.00 0.00 61 1012.5
20260506171031 71 224 6.0 22.0 0.00 0.00 0.00 60 1012.4
20260506170531 71 200 3.0 21.0 0.00 0.00 0.00 59 1012.4
20260506170030 71 180 12.0 20.0 0.00 0.00 0.00 60 1012.4
20260506165529 71 184 11.0 24.0 0.00 0.00 0.00 59 1012.1
20260506165028 71 177 14.0 24.0 0.00 0.00 0.00 60 1012.6
20260506164028 71 179 9.0 26.0 0.00 0.00 0.00 62 1012.5
20260506163527 71 184 11.0 22.0 0.00 0.00 0.00 61 1012.2
20260506163026 71 183 8.0 18.0 0.00 0.00 0.00 62 1012.7
20260506162525 70 267 8.0 21.0 0.00 0.00 0.00 63 1012.6
20260506162039 69 202 14.0 23.0 0.00 0.00 0.00 65 1012.8
20260506161522 70 180 11.0 23.0 0.00 0.00 0.00 63 1012.9
20260506161022 70 155 9.0 23.0 0.00 0.00 0.00 62 1012.9
20260506160522 70 242 6.0 24.0 0.00 0.00 0.00 63 1012.9
20260506160035 70 164 7.0 24.0 0.00 0.00 0.00 61 1012.8
20260506155520 70 185 12.0 24.0 0.00 0.00 0.00 64 1013.1
20260506154019 71 176 17.0 29.0 0.00 0.00 0.00 62 1012.9
20260506153519 71 139 7.0 29.0 0.00 0.00 0.00 61 1012.9
20260506152508 70 158 10.0 22.0 0.00 0.00 0.00 63 1013.2
20260506151004 70 151 15.0 23.0 0.00 0.00 0.00 62 1012.9
20260506150505 69 188 5.0 23.0 0.00 0.00 0.00 65 1012.6
20260506150004 69 179 11.0 20.0 0.00 0.00 0.00 64 1012.8
20260506145503 69 182 8.0 20.0 0.00 0.00 0.00 64 1012.8
20260506144959 69 174 10.0 19.0 0.00 0.00 0.00 64 1012.7
20260506144457 70 240 11.0 21.0 0.00 0.00 0.00 64 1012.9
20260506143957 69 164 15.0 24.0 0.00 0.00 0.00 65 1013.0
20260506143457 69 256 3.0 24.0 0.00 0.00 0.00 67 1013.0
20260506142956 69 185 6.0 16.0 0.00 0.00 0.00 66 1012.9
20260506142454 68 183 4.0 20.0 0.00 0.00 0.00 67 1012.8
20260506141954 68 157 10.0 20.0 0.00 0.00 0.00 68 1012.7
20260506140952 67 162 6.0 15.0 0.00 0.00 0.00 71 1012.8
20260506135945 66 155 10.0 14.0 0.00 0.00 0.00 71 1013.0
20260506134942 65 217 7.0 18.0 0.00 0.00 0.00 73 1013.2
20260506134441 65 173 9.0 18.0 0.00 0.00 0.00 74 1013.2
20260506133438 64 213 5.0 16.0 0.00 0.00 0.00 74 1013.4
20260506132937 64 163 5.0 16.0 0.00 0.00 0.00 75 1013.1
20260506132434 64 195 6.0 14.0 0.00 0.00 0.00 75 1013.1
20260506131933 64 194 5.0 14.0 0.00 0.00 0.00 75 1013.0
20260506131431 64 172 6.0 13.0 0.00 0.00 0.00 75 1013.1
20260506130428 64 173 10.0 16.0 0.00 0.00 0.00 75 1013.0
20260506125927 64 138 4.0 16.0 0.00 0.00 0.00 75 1013.2
20260506125426 63 161 10.0 19.0 0.00 0.00 0.00 75 1013.3
20260506124927 63 188 10.0 19.0 0.00 0.00 0.00 75 1013.1
20260506124417 63 193 10.0 19.0 0.00 0.00 0.00 75 1013.1
20260506123916 63 224 6.0 13.0 0.00 0.00 0.00 76 1013.0
20260506123411 63 169 8.0 18.0 0.00 0.00 0.00 76 1013.1
20260506122408 64 155 10.0 17.0 0.00 0.00 0.00 76 1013.0
20260506121908 64 201 10.0 17.0 0.00 0.00 0.00 75 1013.2
20260506121408 64 188 11.0 19.0 0.00 0.00 0.00 75 1013.2
20260506120908 64 179 8.0 19.0 0.00 0.00 0.00 74 1012.8
20260506120408 64 180 4.0 16.0 0.00 0.00 0.00 75 1012.9
20260506115908 64 171 9.0 16.0 0.00 0.00 0.00 75 1012.7
20260506114906 64 212 3.0 18.0 0.00 0.00 0.00 76 1012.7
20260506113859 64 194 3.0 19.0 0.00 0.00 0.00 76 1012.8
20260506113354 64 151 4.0 17.0 0.00 0.00 0.00 76 1013.0
20260506112350 64 174 5.0 26.0 0.00 0.00 0.00 75 1013.3
20260506111850 64 184 8.0 17.0 0.00 0.00 0.00 75 1013.2
20260506111350 64 190 9.0 17.0 0.00 0.00 0.00 75 1012.9
20260506110850 64 183 11.0 16.0 0.00 0.00 0.00 75 1013.0
20260506110349 65 189 9.0 16.0 0.00 0.00 0.00 74 1012.8
20260506105850 65 208 5.0 13.0 0.00 0.00 0.00 74 1012.9
20260506105346 64 241 5.0 24.0 0.00 0.00 0.00 74 1012.9
20260506104846 64 175 11.0 24.0 0.00 0.00 0.00 75 1012.8
20260506103844 64 124 6.0 14.0 0.00 0.00 0.00 75 1012.8
20260506103344 64 188 7.0 15.0 0.00 0.00 0.00 74 1012.6
20260506102844 64 191 7.0 15.0 0.00 0.00 0.00 76 1012.5
20260506101848 64 210 7.0 15.0 0.00 0.00 0.00 76 1012.4
20260506100841 64 231 2.0 16.0 0.00 0.00 0.00 75 1012.3
20260506100341 64 248 10.0 16.0 0.00 0.00 0.00 75 1012.3
20260506095842 64 192 7.0 16.0 0.00 0.00 0.00 75 1012.1
20260506095351 64 258 12.0 17.0 0.00 0.00 0.00 75 1012.2
20260506094840 64 191 9.0 21.0 0.00 0.00 0.00 74 1012.0
20260506094339 64 187 6.0 22.0 0.00 0.00 0.00 74 1012.1
20260506093843 64 202 13.0 22.0 0.00 0.00 0.00 74 1011.9
20260506093338 64 170 2.0 18.0 0.00 0.00 0.00 74 1011.8
20260506092839 64 181 9.0 18.0 0.00 0.00 0.00 74 1011.9
20260506092339 64 194 6.0 16.0 0.00 0.00 0.00 74 1011.9
20260506091839 64 188 4.0 18.0 0.00 0.00 0.00 74 1011.5
20260506091339 64 181 10.0 19.0 0.00 0.00 0.00 74 1011.7
20260506090839 64 250 9.0 19.0 0.00 0.00 0.00 74 1011.5
20260506084338 64 274 6.0 20.0 0.00 0.00 0.00 73 1011.5
20260506083320 64 269 9.0 17.0 0.00 0.00 0.00 73 1011.6
20260506081818 63 283 2.0 21.0 0.00 0.00 0.00 74 1011.6
20260506081320 63 147 5.0 18.0 0.00 0.00 0.00 74 1011.5
20260506080818 63 203 6.0 17.0 0.00 0.00 0.00 74 1011.5
20260506080319 63 187 11.0 19.0 0.00 0.00 0.00 75 1011.7
20260506073310 62 195 7.0 16.0 0.00 0.00 0.00 76 1011.4
20260506072308 61 195 6.0 18.0 0.00 0.00 0.00 76 1011.5
20260506071307 61 203 3.0 14.0 0.00 0.00 0.00 76 1011.6
20260506070805 61 208 4.0 12.0 0.00 0.00 0.00 76 1011.5